Weather in Hajjah

Yemen     15°41′48″N   43°35′50″E
temp.,
°C
wind,
m/s
gust,
m/s
humid.,
%
clouds,
%
prec.,
mm/h
press.,
hPa
HPBL,
m
24 january, mon
mon2400:00+21ne01834 0.1 1015147
03:00+21wsw118268 0.2 101417
06:00+20wsw11911 0.1 101626
09:00+21w218347 0.3 1018465
12:00+24wsw325711 0.1 10161341
15:00+26w434616 0.1 10141618
18:00+25w22467 0.0 1014917
21:00+22wsw21691 0.0 1016318
25 january, tue
tue2500:00+21sw1182100 0.0 1016221
03:00+20wsw118752 0.0 1015126
06:00+19sw119227 0.0 101694
09:00+20wsw118344 0.0 1018446
12:00+24wsw326037 0.0 10161212
15:00+25wsw325267 0.1 10141361
18:00+23wsw325898 0.0 1014924
21:00+21wsw217795 0.0 1016405
26 january, wed
wed2600:00+20wsw118398 0.0 1016290
03:00+19w118776 0.0 1015142
06:00+19sse01888 0.0 101639
09:00+21wnw017110 0.0 1016451
12:00+24wsw325625 0.0 10151316
15:00+25wsw535556 0.1 10131260
18:00+22wsw217580 0.2 1014698
21:00+21wsw217635 0.2 1016454
27 january, thu
thu2700:00+21sw118158 0.1 1016228
03:00+20wsw2283100 1.1 1015119
06:00+19sw228982 0.6 1016141
09:00+20wsw1181100 0.8 1018486
12:00+24wsw326395 0.1 10161225
15:00+25w225390 0.2 10141446
18:00+24w215466 0.0 1015882
21:00+21w228257 0.1 1017408
28 january, fri
fri2800:00+20wsw218384 0.3 1016435
03:00+20wsw118470 0.6 1015355
06:00+20sw118641 0.3 1016306
09:00+20wsw118279 0.4 1018522
12:00+23w226849 0.1 1016917
15:00+24w326063 0.1 10131213
18:00+22wsw217053 0.0 1014644
21:00+21w228267 0.1 1017432